EFKTEFVA

Guest
Details From EFKT - Kittila
To EFVA - VAASA
Flight Number -
Tags generated
Created
Modified
Stats Distance 300 nm / 555 km
Max Altitude 35,000 ft / 10,668 m
Waypoints 4
Social Downloads 1
Likes 0
Share VATSIM

Download

Looking for another format? Having issues loading an existing format? Contact us
Advertisement - Login to hide

Notes

Basic altitude profile: - Ascent Rate: 2500ft/min - Ascent Speed: 250kts - Cruise Altitude: 35000ft - Cruise Speed: 420kts - Descent Rate: 1500ft/min - Descent Speed: 250kts

Route

EFKT BABUX UP609 VASUL EFVA

ID Type Via Altitude Latitude Longitude Leg Dist Tot Dist Heading (true) Name
O EFKT APT - 0 ft / 0 m 67.70102˚ 24.84685˚ - 0 nm - Kittila
BABUX FIX - 35,000 ft / 10,668 m 66.05583˚ 25.15917˚ 99 nm 99 nm 176° / 176° -
VASUL FIX UP609 (AWY-HI) 28,500 ft / 8,687 m 64.53472˚ 23.34139˚ 102 nm 201 nm 207° / 206° -
O EFVA APT - 0 ft / 0 m 63.05065˚ 21.76217˚ 98 nm 299 nm 206° / 204° VAASA

Altitude Profile

Advertisement - Login to hide

Weather


0- 5 10 15 20 25 30 35+ Temperature / ° C

Clouds and Precipitation
Forecast for 2018-05-24 18:00 UTC. Updated an hour ago

Ground ~20,000 ft ~40,000 ft Winds

EFKT

Details ICAO EFKT (KTT)
Name Kittila
Region Finland
Timezone Europe/Helsinki (UTC+3.0)
Stats Elevation 644 ft / 196 m (AMSL)
Location 67.701022° 24.846849°
Runways 1
Magnetic Variation 11.511° E

METAR

EFKT 241820Z AUTO 11002KT CAVOK 12/02 Q1024

Decode

TAF

Not found

Departure Runways

ID Width Length Bearing (true) Bearing (mag) Surface Threshold Offset Overrun Length
16 148 ft / 45 m 8,180 ft / 2,493 m 166.12° 154.61° Asphalt 0 ft / 0 m 0 ft / 0 m
34 148 ft / 45 m 8,180 ft / 2,493 m 346.13° 334.62° Asphalt 0 ft / 0 m 0 ft / 0 m

EFVA

Details ICAO EFVA (VAA)
Name VAASA
Region Finland
Timezone Europe/Helsinki (UTC+3.0)
Stats Elevation 19 ft / 6 m (AMSL)
Location 63.050650° 21.762173°
Runways 1
Magnetic Variation 8.519° E

METAR

EFVA 241820Z AUTO 25003KT 220V280 CAVOK 15/02 Q1028

Decode

TAF

TAF EFVA 241720Z 2418/2518 28005KT CAVOK

Decode

Destination Runways

ID Width Length Bearing (true) Bearing (mag) Surface Threshold Offset Overrun Length
16 157 ft / 48 m 8,707 ft / 2,654 m 163.02° 154.50° Asphalt 0 ft / 0 m 0 ft / 0 m
34 157 ft / 48 m 8,707 ft / 2,654 m 343.03° 334.51° Asphalt 525 ft / 160 m 0 ft / 0 m

Approach Navaids

Runway Type Ident Frequency Range Bearing (true) Bearing (mag) Slope Elevation
16 Localiser VA 108.50 MHz 18 nm / 33 km 163.20° 154.68° - 19 ft / 6 m (AMSL)
16 Glidescope VA 108.50 MHz 10 nm / 19 km 163.03° 154.51° 3.00° 19 ft / 6 m (AMSL)
16 DME VA 108.50 MHz 18 nm / 33 km - - - 78 ft / 24 m (AMSL)